Regional Weather Roundup
Issued by NWS

Home | Current Version | Previous Version | Text Only | Print | Product List | Glossary Off
Versions: 1 2 3 4 5 6 7 8 9 10 11 12 13 14 15 16 17 18 19 20 21 22 23 24 25 26 27 28 29 30 31 32 33 34 35 36 37 38 39 40 41 42 43 44 45 46 47 48 49 50

000
ASUS43 KMKX 010921
RWRWI

WISCONSIN REGIONAL WEATHER ROUNDUP
NATIONAL WEATHER SERVICE MILWAUKEE/SULLIVAN WI
400 AM CDT FRI AUG 01 2014

NOTE: "FAIR" INDICATES FEW OR NO CLOUDS BELOW 12,000 FEET WITH NO
SIGNIFICANT WEATHER AND/OR OBSTRUCTIONS TO VISIBILITY.

WIZ001-002-006>008-014>016-023>028-011000-
NORTHWEST WISCONSIN

CITY           SKY/WX    TMP DP  RH WIND       PRES   REMARKS
SUPERIOR ARPT  FOG       52  52  99 CALM      30.00R VSB 1/2
ASHLAND        CLEAR     52  51  97 CALM      30.01R
HAYWARD        FOG       54  54 100 CALM      30.02S VSB 1/2
SIREN          PTCLDY    56  55  96 CALM      30.02R
RICE LAKE      MOCLDY    59  58  96 CALM      30.03S FOG
LADYSMITH      FOG       56  55  97 CALM      30.04R VSB 1/2
EAU CLAIRE     PTCLDY    63  61  93 CALM      30.01S
MENOMONIE      MOSUNNY   61  58  90 CALM      30.02S
NEW RICHMOND   CLEAR     58  57  97 CALM      30.03R
OSCEOLA        CLEAR     58  58 100 CALM      30.04R
$$

WIZ003>005-009-010-017-018-011000-
NORTH CENTRAL WISCONSIN

CITY           SKY/WX    TMP DP  RH WIND       PRES   REMARKS
WOODRUFF       CLEAR     52  44  74 CALM      30.03R
RHINELANDER    FOG       50  50 100 CALM      30.03S VSB 1/4
EAGLE RIVER    FOG       48  48 100 CALM      30.02S VSB 1/2
LAND O LAKES   CLEAR     46  46 100 CALM      30.03S FOG
PHILLIPS       FOG       53  53 100 CALM      30.03R VSB 1
TOMAHAWK       FOG       49  48  97 CALM      30.04R VSB 3/4
MEDFORD        CLEAR     55  55 100 CALM      30.03R FOG
MERRILL        FOG       51  51 100 CALM      30.02S VSB 1/4
$$

WIZ029-030-035-036-043>047-011000-
CENTRAL WISCONSIN

CITY           SKY/WX    TMP DP  RH WIND       PRES   REMARKS
WAUSAU         CLEAR     59  57  93 CALM      30.01S
MOSINEE        CLEAR     57  57 100 CALM      30.03S
MARSHFIELD     PTCLDY    63  58  83 W7        30.02S
STEVENS POINT  PTCLDY    54  53  97 CALM      30.03R
WAUPACA        PTCLDY    60  58  94 CALM      30.02S
WAUTOMA        PTCLDY    56  54  93 CALM      30.03R
WISC RAPIDS    PTCLDY    61  58  90 CALM      30.04R
CAMP DOUGLAS   PTCLDY    55  55 100 CALM      30.03R
$$

WIZ011>013-019>022-031-037>040-048>050-011000-
NORTHEAST WISCONSIN

CITY           SKY/WX    TMP DP  RH WIND       PRES   REMARKS
ANTIGO         FOG       51  51 100 CALM      30.04R VSB 1/2
STURGEON BAY   CLEAR     57  54  88 S3        30.00S
GREEN BAY      CLEAR     57  56  96 W3        30.01R
MANITOWOC      CLEAR     61  59  94 CALM      30.01S FOG
APPLETON       CLEAR     61  57  88 W9        30.02R
CLINTONVILLE   CLEAR     54  54 100 CALM      30.01S FOG
OSHKOSH        CLEAR     63  59  87 W5        30.01R
$$

WIZ032>034-041-042-053>061-011000-
SOUTHWEST WISCONSIN

CITY           SKY/WX    TMP DP  RH WIND       PRES   REMARKS
LA CROSSE      CLEAR     65  61  87 S7        30.03R
SPARTA         PTCLDY    53  52  97 CALM      30.04S
VIROQUA        FAIR      60  57  91 SW3       30.06R
BOSCOBEL       PTCLDY    58  56  93 CALM      30.05S FOG
PRAIRIE DU CHI CLEAR     58  56  93 CALM      30.05R
PLATTEVILLE    FAIR      57  56  94 CALM      30.07R
$$

WIZ056-057-062-063-064-067-068-011000-
SOUTH CENTRAL WISCONSIN

CITY           SKY/WX    TMP DP  RH WIND       PRES   REMARKS
BARABOO/DELLS  CLEAR     58  55  91 CALM      30.04S
LONE ROCK      FOG       59  55  87 CALM      30.05R VSB 1/4
WATERTOWN      CLEAR     56  55  94 CALM      30.04R
MADISON        CLEAR     59  57  93 CALM      30.04S
MIDDLETON      FAIR      57  56  97 CALM      30.05S
MONROE         CLEAR     63  59  88 W8        30.06R
JANESVILLE     CLEAR     59  55  88 CALM      30.05S
$$

WIZ051-052-058>065-066-070>072-011000-
SOUTHEAST WISCONSIN

CITY           SKY/WX    TMP DP  RH WIND       PRES   REMARKS
MILWAUKEE      PTCLDY    66  58  75 W6        30.04R
WAUKESHA       CLEAR     57  55  94 CALM      30.06R
MILWAUKEE/TIMM CLEAR     63  55  77 CALM      30.04S
RACINE         CLEAR     64  57  78 W6        30.05S
BURLINGTON     CLEAR     55  54  95 S3        30.05S
KENOSHA        CLEAR     58  56  93 SW6       30.05R
FOND DU LAC    CLEAR     63  58  83 SW7       30.03R
SHEBOYGAN      CLEAR     58  57  97 SW3       30.02R
WEST BEND      CLEAR     59  55  88 CALM      30.03S
JUNEAU         CLEAR     59  56  91 SW5       30.05R
$$

LSZ147-162-011000-
LAKE SUPERIOR

STATION/POSITION TIME  TEMP    WIND        PRES    WAVE
                       AIR SEA DIR/SP/G            HT/PER
                 (UTC) (F)     (DEG/KT/KT) (MB)    (FT/S)
W MID LAKE BUOY  0850   46 44   50/  6/  6 1016.2R   0
PORT WING        0800   56     130/  3/  3 1015.6F
SAXON HARBOR     0800          200/  3/  6 1015.6
$$

LMZ867-665-643>646-011000-
LAKE MICHIGAN

STATION/POSITION TIME  TEMP    WIND        PRES    WAVE
                       AIR SEA DIR/SP/G            HT/PER
                 (UTC) (F)     (DEG/KT/KT) (MB)    (FT/S)
N MID LAKE BUOY  0850   57 54  190/  4/  6 1015.3R   1/ 4
NORTHPORT PIER   0800   61     150/  3/  3 1015.6S
SISTER BAY       0811   63        CALM       N/A
ALGOMA LAKESHORE 0821          330/  8/  8   N/A
KEWAUNEE LAKESHO 0900   59     310/  4/  5 1015.2R
SHEBOYGAN LAKESH 0900   66     260/  9/ 10 1016.3R
PORT WASHINGTON  0800   67     280/  4/  8 1016.9
ATWATER BUOY     0900   67     250/  8     1017.9R
MILWAUKEE LAKESH 0900   68     280/  5/  6   N/A
S MID LAKE BUOY  0850   64 62  230/  8/  8 1017.0R   0
KENOSHA   LAKESH 0900   67     260/  8/ 11 1016.9S
$$

TC  - TEMPERATURE IN CELSIUS
VSB - VISIBILITY IN STATUTE MILES
WCI - WIND CHILL INDEX
HX  - HEAT INDEX




USA.gov is the U.S. government's official web portal to all federal, state and local government web resources and services.